EJU41HA GVAC-LPPT

Flight info

Callsign EJU41HA
Flight time 3h 25m
Altitude 35000
Route DIMKI1A DIMKI DCT IPERA N873 LIMAL/N0435F360 DCT UDATI DCT ODEGI DCT LOMAS DCT GDV DCT VASTO DCT BAROK DCT VATZI
Aircraft A320/M-SDE2E3FGHIJ1RWXYZ/LB1

Departure

Time 2026-04-18 04:48
Airport Amílcar Cabral International Airport (GVAC)

Arrival

Time 2026-04-18 08:13
Airport Lisbon Humberto Delgado Airport (LPPT)
Time Latitude Longitude Altitude Speed Heading
2026-04-18 04:21 16.73430 -22.94507 151 ft 0 kts 90°
2026-04-18 04:39 16.73430 -22.94509 150 ft 2 kts 90°
2026-04-18 04:40 16.73430 -22.94537 150 ft 4 kts 90°
2026-04-18 04:40 16.73430 -22.94564 150 ft 4 kts 100°
2026-04-18 04:40 16.73441 -22.94586 150 ft 4 kts 147°
2026-04-18 04:40 16.73465 -22.94596 150 ft 4 kts 176°
2026-04-18 04:41 16.73471 -22.94596 150 ft 0 kts 178°
2026-04-18 04:42 16.73465 -22.94596 150 ft 3 kts 178°
2026-04-18 04:43 16.73422 -22.94595 150 ft 9 kts 180°
2026-04-18 04:43 16.73352 -22.94595 150 ft 10 kts 180°
2026-04-18 04:43 16.73291 -22.94594 150 ft 8 kts 180°
2026-04-18 04:43 16.73220 -22.94594 150 ft 13 kts 179°
2026-04-18 04:44 16.73137 -22.94592 150 ft 11 kts 179°
2026-04-18 04:44 16.73070 -22.94630 150 ft 15 kts 246°
2026-04-18 04:44 16.73001 -22.94691 150 ft 13 kts 182°
2026-04-18 04:44 16.72907 -22.94690 150 ft 15 kts 180°
2026-04-18 04:45 16.72788 -22.94689 150 ft 17 kts 179°
2026-04-18 04:45 16.72673 -22.94689 150 ft 16 kts 180°
2026-04-18 04:45 16.72570 -22.94688 150 ft 14 kts 180°
2026-04-18 04:45 16.72471 -22.94688 150 ft 14 kts 180°
2026-04-18 04:46 16.72407 -22.94734 149 ft 11 kts 257°
2026-04-18 04:46 16.72403 -22.94816 149 ft 12 kts 270°
2026-04-18 04:46 16.72449 -22.94887 150 ft 14 kts 354°
2026-04-18 04:46 16.72473 -22.94887 150 ft 0 kts 360°
2026-04-18 04:47 16.72550 -22.94887 150 ft 40 kts 360°
2026-04-18 04:47 16.73065 -22.94892 152 ft 105 kts 359°
2026-04-18 04:47 16.73975 -22.94900 152 ft 155 kts 359°
2026-04-18 04:47 16.75117 -22.94914 592 ft 165 kts 359°
2026-04-18 04:48 16.76271 -22.94922 1315 ft 165 kts 358°
2026-04-18 04:48 16.77462 -22.94930 1812 ft 180 kts 358°
2026-04-18 04:48 16.78792 -22.94939 2039 ft 202 kts 359°
2026-04-18 04:48 16.80252 -22.94949 2321 ft 224 kts 359°
2026-04-18 04:49 16.81894 -22.94959 2637 ft 248 kts 359°
2026-04-18 04:49 16.83668 -22.94971 3207 ft 260 kts 358°
2026-04-18 04:49 16.85500 -22.94984 3882 ft 266 kts 358°
2026-04-18 04:49 16.87368 -22.94996 4629 ft 271 kts 358°
2026-04-18 04:50 16.89267 -22.95008 5337 ft 275 kts 358°
2026-04-18 04:50 16.91191 -22.94888 6035 ft 281 kts
2026-04-18 04:50 16.93065 -22.94250 6701 ft 288 kts 25°
2026-04-18 04:50 16.94213 -22.93538 7131 ft 292 kts 34°
2026-04-18 04:51 16.95892 -22.92319 7811 ft 296 kts 34°
2026-04-18 04:51 16.97601 -22.91082 8481 ft 301 kts 34°
2026-04-18 04:51 16.99337 -22.89827 9136 ft 307 kts 34°
2026-04-18 04:51 17.01107 -22.88547 9803 ft 312 kts 34°
2026-04-18 04:52 17.02908 -22.87242 10308 ft 322 kts 34°
2026-04-18 04:52 17.04814 -22.85866 10459 ft 345 kts 34°
2026-04-18 04:52 17.06842 -22.84401 10758 ft 360 kts 34°
2026-04-18 04:52 17.08920 -22.82899 11305 ft 366 kts 34°
2026-04-18 04:53 17.11029 -22.81376 11919 ft 370 kts 33°
2026-04-18 04:53 17.13155 -22.79842 12553 ft 373 kts 33°
2026-04-18 04:53 17.15297 -22.78293 13183 ft 376 kts 33°
2026-04-18 04:53 17.17459 -22.76729 13801 ft 379 kts 33°
2026-04-18 04:54 17.19634 -22.75158 14342 ft 382 kts 33°
2026-04-18 04:54 17.21834 -22.73570 14859 ft 386 kts 33°
2026-04-18 04:54 17.24054 -22.71966 15367 ft 390 kts 32°
2026-04-18 04:54 17.26297 -22.70344 15874 ft 394 kts 32°
2026-04-18 04:55 17.28569 -22.68701 16378 ft 399 kts 32°
2026-04-18 04:55 17.30861 -22.67041 16884 ft 403 kts 32°
2026-04-18 04:55 17.33179 -22.65360 17377 ft 407 kts 32°
2026-04-18 04:56 17.37880 -22.61944 18333 ft 416 kts 32°
2026-04-18 04:56 17.40238 -22.60232 18744 ft 419 kts 32°
2026-04-18 04:56 17.42643 -22.58485 19176 ft 423 kts 32°
2026-04-18 04:56 17.45074 -22.56721 19603 ft 427 kts 31°
2026-04-18 04:57 17.47524 -22.54943 20015 ft 430 kts 31°
2026-04-18 04:57 17.49992 -22.53149 20427 ft 434 kts 31°
2026-04-18 04:57 17.52483 -22.51338 20838 ft 437 kts 31°
2026-04-18 04:57 17.54989 -22.49517 21238 ft 440 kts 31°
2026-04-18 04:58 17.57519 -22.47680 21644 ft 444 kts 31°
2026-04-18 04:58 17.60061 -22.45832 22051 ft 447 kts 30°
2026-04-18 04:58 17.62620 -22.43971 22447 ft 449 kts 30°
2026-04-18 04:58 17.65198 -22.42094 22838 ft 452 kts 30°
2026-04-18 04:59 17.67789 -22.40207 23222 ft 455 kts 30°
2026-04-18 04:59 17.70399 -22.38307 23576 ft 458 kts 30°
2026-04-18 04:59 17.73029 -22.36390 23891 ft 461 kts 30°
2026-04-18 04:59 17.75666 -22.34467 24216 ft 463 kts 29°
2026-04-18 05:00 17.78314 -22.32537 24553 ft 465 kts 29°
2026-04-18 05:00 17.80978 -22.30593 24876 ft 467 kts 29°
2026-04-18 05:00 17.83649 -22.28643 25187 ft 469 kts 28°
2026-04-18 05:00 17.86334 -22.26683 25508 ft 471 kts 28°
2026-04-18 05:01 17.89029 -22.24721 25814 ft 472 kts 27°
2026-04-18 05:01 17.91779 -22.22842 26118 ft 472 kts 25°
2026-04-18 05:01 17.94595 -22.21068 26418 ft 472 kts 22°
2026-04-18 05:01 17.97446 -22.19360 26716 ft 473 kts 21°
2026-04-18 05:02 18.00323 -22.17672 27015 ft 474 kts 21°
2026-04-18 05:02 18.03167 -22.16002 27313 ft 476 kts 21°
2026-04-18 05:02 18.06054 -22.14285 27604 ft 478 kts 21°
2026-04-18 05:02 18.08943 -22.12529 27895 ft 481 kts 21°
2026-04-18 05:03 18.11830 -22.10744 28185 ft 483 kts 22°
2026-04-18 05:03 18.14720 -22.08938 28489 ft 485 kts 22°
2026-04-18 05:03 18.17629 -22.07122 28751 ft 487 kts 21°
2026-04-18 05:03 18.20547 -22.05308 29009 ft 488 kts 21°
2026-04-18 05:04 18.23484 -22.03491 29265 ft 490 kts 21°
2026-04-18 05:04 18.26428 -22.01677 29517 ft 492 kts 21°
2026-04-18 05:04 18.29383 -21.99860 29752 ft 493 kts 20°
2026-04-18 05:04 18.32352 -21.98034 29995 ft 495 kts 20°
2026-04-18 05:05 18.35326 -21.96203 30188 ft 496 kts 20°
2026-04-18 05:05 18.38312 -21.94358 30385 ft 498 kts 20°
2026-04-18 05:05 18.41293 -21.92508 30660 ft 497 kts 20°
2026-04-18 05:05 18.44268 -21.90658 30948 ft 497 kts 20°
2026-04-18 05:06 18.47245 -21.88807 31256 ft 496 kts 20°
2026-04-18 05:06 18.50217 -21.86964 31520 ft 496 kts 20°
2026-04-18 05:06 18.53195 -21.85122 31774 ft 496 kts 20°
2026-04-18 05:06 18.56168 -21.83286 32061 ft 496 kts 20°
2026-04-18 05:07 18.59138 -21.81448 32341 ft 495 kts 20°
2026-04-18 05:07 18.62107 -21.79605 32626 ft 495 kts 20°
2026-04-18 05:07 18.65069 -21.77764 32909 ft 494 kts 19°
2026-04-18 05:07 18.68027 -21.75922 33189 ft 494 kts 19°
2026-04-18 05:08 18.70986 -21.74079 33476 ft 493 kts 19°
2026-04-18 05:08 18.73938 -21.72243 33769 ft 493 kts 19°
2026-04-18 05:08 18.76852 -21.70432 34035 ft 492 kts 19°
2026-04-18 05:08 18.79836 -21.68577 34295 ft 491 kts 19°
2026-04-18 05:09 18.82774 -21.66747 34587 ft 490 kts 18°
2026-04-18 05:09 18.85673 -21.64941 34801 ft 490 kts 18°
2026-04-18 05:09 18.88606 -21.63119 35034 ft 489 kts 18°
2026-04-18 05:09 18.91538 -21.61295 35265 ft 488 kts 18°
2026-04-18 05:10 18.94458 -21.59470 35494 ft 487 kts 18°
2026-04-18 05:10 18.97372 -21.57649 35720 ft 486 kts 18°
2026-04-18 05:10 19.00287 -21.55832 35875 ft 486 kts 18°
2026-04-18 05:10 19.03190 -21.54023 35921 ft 484 kts 18°
2026-04-18 05:11 19.08970 -21.50412 35897 ft 482 kts 18°
2026-04-18 05:11 19.14740 -21.46807 35910 ft 482 kts 18°
2026-04-18 05:12 19.20515 -21.43201 35908 ft 482 kts 18°
2026-04-18 05:12 19.26293 -21.39591 35910 ft 483 kts 18°
2026-04-18 05:13 19.32077 -21.35965 35913 ft 483 kts 18°
2026-04-18 05:13 19.37820 -21.32355 35912 ft 483 kts 18°
2026-04-18 05:14 19.43602 -21.28730 35913 ft 483 kts 18°
2026-04-18 05:14 19.49376 -21.25111 35911 ft 482 kts 18°
2026-04-18 05:15 19.55151 -21.21475 35943 ft 483 kts 18°
2026-04-18 05:15 19.60931 -21.17833 35932 ft 483 kts 18°
2026-04-18 05:16 19.66718 -21.14190 35926 ft 484 kts 18°
2026-04-18 05:16 19.72505 -21.10539 35928 ft 484 kts 18°
2026-04-18 05:17 19.78287 -21.06892 35920 ft 484 kts 18°
2026-04-18 05:17 19.84074 -21.03247 35916 ft 484 kts 18°
2026-04-18 05:18 19.89861 -20.99590 35934 ft 484 kts 18°
2026-04-18 05:18 19.95652 -20.95925 35913 ft 485 kts 18°
2026-04-18 05:19 20.01443 -20.92253 35911 ft 485 kts 18°
2026-04-18 05:19 20.07244 -20.88580 35909 ft 485 kts 18°
2026-04-18 05:20 20.13010 -20.84928 35914 ft 486 kts 18°
2026-04-18 05:20 20.18819 -20.81248 35917 ft 486 kts 18°
2026-04-18 05:21 20.24626 -20.77556 35925 ft 486 kts 19°
2026-04-18 05:21 20.30428 -20.73859 35923 ft 486 kts 18°
2026-04-18 05:22 20.36234 -20.70167 35918 ft 486 kts 18°
2026-04-18 05:22 20.42036 -20.66475 35915 ft 485 kts 19°
2026-04-18 05:23 20.47830 -20.62772 35914 ft 485 kts 19°
2026-04-18 05:23 20.53622 -20.59063 35954 ft 485 kts 19°
2026-04-18 05:24 20.59390 -20.55367 35914 ft 483 kts 19°
2026-04-18 05:24 20.65151 -20.51682 35913 ft 483 kts 19°
2026-04-18 05:25 20.70906 -20.47991 35910 ft 482 kts 19°
2026-04-18 05:25 20.76620 -20.44325 35913 ft 482 kts 19°
2026-04-18 05:26 20.82367 -20.40637 35903 ft 482 kts 19°
2026-04-18 05:26 20.88117 -20.36940 35939 ft 482 kts 20°
2026-04-18 05:27 20.93869 -20.33235 35931 ft 483 kts 20°
2026-04-18 05:27 20.99619 -20.29532 35919 ft 482 kts 20°
2026-04-18 05:28 21.05368 -20.25830 35911 ft 482 kts 20°
2026-04-18 05:28 21.11114 -20.22131 35910 ft 482 kts 20°
2026-04-18 05:29 21.16863 -20.18418 35911 ft 482 kts 20°
2026-04-18 05:29 21.22570 -20.14720 35939 ft 482 kts 21°
2026-04-18 05:30 21.28315 -20.11003 35927 ft 482 kts 21°
2026-04-18 05:30 21.34049 -20.07290 35932 ft 482 kts 21°
2026-04-18 05:31 21.39785 -20.03575 35910 ft 481 kts 21°
2026-04-18 05:31 21.45516 -19.99860 35903 ft 481 kts 21°
2026-04-18 05:32 21.51242 -19.96139 35905 ft 481 kts 21°
2026-04-18 05:32 21.56967 -19.92413 35932 ft 481 kts 22°
2026-04-18 05:33 21.62687 -19.88691 35921 ft 481 kts 22°
2026-04-18 05:33 21.68410 -19.84974 35917 ft 480 kts 22°
2026-04-18 05:34 21.74126 -19.81250 35914 ft 480 kts 22°
2026-04-18 05:34 21.79800 -19.77545 35907 ft 480 kts 22°
2026-04-18 05:35 21.85504 -19.73810 35912 ft 480 kts 22°
2026-04-18 05:35 21.91215 -19.70080 35928 ft 480 kts 23°
2026-04-18 05:36 21.96922 -19.66353 35922 ft 479 kts 23°
2026-04-18 05:36 22.02621 -19.62623 35913 ft 479 kts 23°
2026-04-18 05:37 22.08312 -19.58890 35912 ft 479 kts 23°
2026-04-18 05:37 22.13997 -19.55162 35907 ft 478 kts 23°
2026-04-18 05:38 22.19682 -19.51425 35903 ft 478 kts 23°
2026-04-18 05:38 22.25364 -19.47684 35928 ft 478 kts 24°
2026-04-18 05:39 22.31041 -19.43950 35906 ft 477 kts 24°
2026-04-18 05:39 22.36671 -19.40244 35904 ft 477 kts 24°
2026-04-18 05:40 22.42341 -19.36505 35904 ft 477 kts 24°
2026-04-18 05:40 22.48009 -19.32762 35904 ft 477 kts 24°
2026-04-18 05:41 22.53678 -19.29014 35904 ft 477 kts 24°
2026-04-18 05:41 22.59348 -19.25272 35920 ft 477 kts 25°
2026-04-18 05:42 22.65008 -19.21531 35913 ft 477 kts 25°
2026-04-18 05:42 22.70662 -19.17782 35905 ft 476 kts 25°
2026-04-18 05:43 22.76312 -19.14027 35899 ft 476 kts 25°
2026-04-18 05:43 22.81956 -19.10280 35890 ft 476 kts 25°
2026-04-18 05:44 22.87602 -19.06527 35887 ft 476 kts 25°
2026-04-18 05:44 22.93251 -19.02779 35893 ft 476 kts 25°
2026-04-18 05:45 22.97942 -18.99662 35898 ft 476 kts 25°
2026-04-18 05:45 23.03585 -18.95896 35888 ft 476 kts 25°
2026-04-18 05:46 23.09227 -18.92127 35892 ft 476 kts 25°
2026-04-18 05:46 23.14869 -18.88351 35882 ft 476 kts 25°
2026-04-18 05:47 23.20510 -18.84582 35885 ft 476 kts 25°
2026-04-18 05:47 23.26158 -18.80812 35895 ft 476 kts 26°
2026-04-18 05:48 23.31806 -18.77036 35893 ft 477 kts 26°
2026-04-18 05:48 23.37411 -18.73264 35890 ft 477 kts 26°
2026-04-18 05:49 23.43050 -18.69472 35890 ft 477 kts 26°
2026-04-18 05:49 23.48698 -18.65685 35883 ft 477 kts 26°
2026-04-18 05:50 23.54345 -18.61899 35885 ft 477 kts 26°
2026-04-18 05:50 23.59986 -18.58098 35888 ft 477 kts 26°
2026-04-18 05:51 23.65622 -18.54287 35881 ft 476 kts 26°
2026-04-18 05:51 23.71255 -18.50485 35882 ft 476 kts 26°
2026-04-18 05:52 23.76894 -18.46684 35880 ft 476 kts 26°
2026-04-18 05:52 23.82531 -18.42885 35876 ft 476 kts 26°
2026-04-18 05:53 23.88158 -18.39071 35891 ft 476 kts 26°
2026-04-18 05:53 23.93781 -18.35261 35886 ft 476 kts 26°
2026-04-18 05:54 23.99413 -18.31449 35879 ft 476 kts 26°
2026-04-18 05:54 24.05044 -18.27624 35871 ft 476 kts 26°
2026-04-18 05:55 24.10677 -18.23798 35868 ft 476 kts 26°
2026-04-18 05:55 24.16306 -18.19964 35865 ft 476 kts 26°
2026-04-18 05:56 24.21931 -18.16136 35883 ft 476 kts 26°
2026-04-18 05:56 24.27524 -18.12327 35869 ft 477 kts 26°
2026-04-18 05:57 24.35969 -18.06556 35854 ft 477 kts 27°
2026-04-18 05:58 24.41605 -18.02709 35862 ft 477 kts 27°
2026-04-18 05:58 24.47238 -17.98854 35867 ft 477 kts 27°
2026-04-18 05:59 24.52870 -17.94999 35870 ft 477 kts 27°
2026-04-18 05:59 24.58504 -17.91144 35881 ft 477 kts 27°
2026-04-18 06:00 24.64127 -17.87277 35871 ft 477 kts 27°
2026-04-18 06:00 24.69751 -17.83404 35864 ft 477 kts 27°
2026-04-18 06:01 24.75376 -17.79531 35862 ft 477 kts 27°
2026-04-18 06:01 24.81007 -17.75665 35861 ft 477 kts 27°
2026-04-18 06:02 24.86633 -17.71794 35857 ft 477 kts 27°
2026-04-18 06:02 24.92261 -17.67903 35875 ft 478 kts 27°
2026-04-18 06:03 24.97888 -17.64005 35867 ft 478 kts 27°
2026-04-18 06:03 25.03481 -17.60136 35862 ft 478 kts 27°
2026-04-18 06:04 25.09111 -17.56236 35861 ft 478 kts 27°
2026-04-18 06:04 25.14735 -17.52332 35860 ft 478 kts 27°
2026-04-18 06:05 25.20364 -17.48427 35885 ft 478 kts 27°
2026-04-18 06:05 25.25990 -17.44514 35874 ft 478 kts 27°
2026-04-18 06:06 25.31615 -17.40595 35867 ft 478 kts 27°
2026-04-18 06:06 25.37234 -17.36678 35851 ft 478 kts 27°
2026-04-18 06:07 25.42859 -17.32763 35854 ft 478 kts 27°
2026-04-18 06:07 25.48480 -17.28842 35857 ft 477 kts 28°
2026-04-18 06:08 25.54091 -17.24904 35872 ft 477 kts 28°
2026-04-18 06:08 25.59703 -17.20976 35877 ft 477 kts 28°
2026-04-18 06:09 25.65312 -17.17053 35888 ft 478 kts 28°
2026-04-18 06:09 25.70928 -17.13117 35862 ft 476 kts 28°
2026-04-18 06:10 25.76524 -17.09181 35865 ft 476 kts 28°
2026-04-18 06:10 25.82080 -17.05270 35865 ft 476 kts 28°
2026-04-18 06:11 25.87662 -17.01335 35868 ft 474 kts 28°
2026-04-18 06:11 25.93228 -16.97410 35870 ft 473 kts 28°
2026-04-18 06:12 25.98792 -16.93491 35875 ft 473 kts 28°
2026-04-18 06:12 26.04354 -16.89568 35875 ft 473 kts 28°
2026-04-18 06:13 26.09910 -16.85636 35876 ft 474 kts 28°
2026-04-18 06:13 26.15470 -16.81693 35883 ft 474 kts 28°
2026-04-18 06:14 26.21031 -16.77749 35902 ft 474 kts 28°
2026-04-18 06:14 26.26593 -16.73814 35901 ft 473 kts 28°
2026-04-18 06:15 26.32147 -16.69883 35893 ft 473 kts 28°
2026-04-18 06:15 26.37667 -16.65971 35895 ft 473 kts 28°
2026-04-18 06:16 26.43226 -16.62032 35896 ft 473 kts 28°
2026-04-18 06:16 26.48782 -16.58077 35897 ft 474 kts 28°
2026-04-18 06:17 26.54334 -16.54108 35918 ft 474 kts 29°
2026-04-18 06:17 26.59886 -16.50154 35919 ft 473 kts 29°
2026-04-18 06:18 26.65440 -16.46202 35925 ft 473 kts 29°
2026-04-18 06:18 26.70986 -16.42244 35920 ft 473 kts 29°
2026-04-18 06:19 26.76530 -16.38291 35918 ft 472 kts 29°
2026-04-18 06:19 26.82065 -16.34324 35908 ft 472 kts 29°
2026-04-18 06:20 26.87592 -16.30361 35912 ft 472 kts 29°
2026-04-18 06:20 26.93116 -16.26394 35917 ft 471 kts 29°
2026-04-18 06:21 26.98629 -16.22417 35914 ft 471 kts 29°
2026-04-18 06:21 27.04143 -16.18443 35922 ft 471 kts 29°
2026-04-18 06:22 27.09619 -16.14498 35923 ft 471 kts 29°
2026-04-18 06:22 27.15132 -16.10516 35942 ft 471 kts 30°
2026-04-18 06:23 27.20639 -16.06534 35932 ft 471 kts 30°
2026-04-18 06:23 27.26140 -16.02545 35941 ft 471 kts 30°
2026-04-18 06:24 27.31641 -15.98554 35934 ft 470 kts 30°
2026-04-18 06:24 27.37132 -15.94565 35935 ft 470 kts 30°
2026-04-18 06:25 27.42624 -15.90579 35942 ft 470 kts 30°
2026-04-18 06:25 27.48112 -15.86592 35964 ft 469 kts 30°
2026-04-18 06:26 27.53591 -15.82599 35949 ft 469 kts 30°
2026-04-18 06:26 27.59057 -15.78604 35943 ft 468 kts 30°
2026-04-18 06:27 27.64526 -15.74614 35952 ft 468 kts 30°
2026-04-18 06:27 27.69991 -15.70620 35950 ft 468 kts 30°
2026-04-18 06:28 27.75416 -15.66646 35950 ft 468 kts 30°
2026-04-18 06:28 27.80873 -15.62643 35970 ft 468 kts 30°
2026-04-18 06:29 27.86335 -15.58639 35973 ft 468 kts 30°
2026-04-18 06:29 27.91795 -15.54633 35974 ft 468 kts 31°
2026-04-18 06:30 27.97249 -15.50617 35972 ft 468 kts 30°
2026-04-18 06:30 28.02706 -15.46594 35973 ft 468 kts 30°
2026-04-18 06:31 28.08167 -15.42575 35983 ft 468 kts 31°
2026-04-18 06:31 28.13620 -15.38539 35987 ft 468 kts 31°
2026-04-18 06:32 28.19058 -15.34491 35986 ft 468 kts 31°
2026-04-18 06:32 28.24496 -15.30435 35984 ft 468 kts 31°
2026-04-18 06:33 28.29898 -15.26408 35985 ft 468 kts 31°
2026-04-18 06:33 28.35338 -15.22359 35983 ft 468 kts 31°
2026-04-18 06:34 28.40778 -15.18306 35997 ft 468 kts 31°
2026-04-18 06:34 28.46204 -15.14244 35992 ft 467 kts 31°
2026-04-18 06:35 28.51628 -15.10175 35990 ft 467 kts 31°
2026-04-18 06:35 28.57053 -15.06111 35988 ft 467 kts 31°
2026-04-18 06:36 28.62475 -15.02046 35987 ft 467 kts 31°
2026-04-18 06:36 28.67896 -14.97978 35987 ft 467 kts 31°
2026-04-18 06:37 28.73307 -14.93904 35999 ft 467 kts 31°
2026-04-18 06:37 28.78682 -14.89846 35989 ft 466 kts 32°
2026-04-18 06:38 28.84091 -14.85762 35993 ft 466 kts 32°
2026-04-18 06:38 28.89501 -14.81682 35993 ft 466 kts 32°
2026-04-18 06:39 28.94906 -14.77603 35993 ft 466 kts 31°
2026-04-18 06:39 29.00314 -14.73520 35993 ft 466 kts 32°
2026-04-18 06:40 29.04801 -14.70117 36006 ft 466 kts 32°
2026-04-18 06:40 29.10196 -14.66011 36004 ft 466 kts 32°
2026-04-18 06:41 29.15588 -14.61905 36008 ft 465 kts 32°
2026-04-18 06:41 29.20983 -14.57803 36006 ft 465 kts 32°
2026-04-18 06:42 29.26373 -14.53695 36006 ft 465 kts 32°
2026-04-18 06:42 29.31759 -14.49587 36020 ft 465 kts 32°
2026-04-18 06:43 29.37147 -14.45472 36015 ft 465 kts 32°
2026-04-18 06:43 29.42536 -14.41359 36016 ft 465 kts 32°
2026-04-18 06:44 29.47921 -14.37240 36014 ft 465 kts 32°
2026-04-18 06:44 29.53304 -14.33116 36015 ft 465 kts 32°
2026-04-18 06:45 29.58682 -14.28992 36019 ft 465 kts 32°
2026-04-18 06:45 29.64022 -14.24880 36027 ft 465 kts 32°
2026-04-18 06:46 29.69395 -14.20729 36017 ft 465 kts 32°
2026-04-18 06:46 29.74771 -14.16578 36019 ft 465 kts 32°
2026-04-18 06:47 29.80148 -14.12438 36020 ft 465 kts 32°
2026-04-18 06:47 29.85527 -14.08290 36025 ft 465 kts 32°
2026-04-18 06:48 29.90902 -14.04131 36025 ft 465 kts 32°
2026-04-18 06:48 29.96274 -13.99964 36029 ft 465 kts 32°
2026-04-18 06:49 30.01643 -13.95788 36028 ft 465 kts 32°
2026-04-18 06:49 30.06974 -13.91646 36031 ft 465 kts 32°
2026-04-18 06:50 30.12346 -13.87472 36029 ft 465 kts 32°
2026-04-18 06:50 30.17714 -13.83291 36024 ft 465 kts 32°
2026-04-18 06:51 30.23077 -13.79102 36045 ft 465 kts 32°
2026-04-18 06:51 30.28431 -13.74911 36038 ft 465 kts 32°
2026-04-18 06:52 30.33791 -13.70726 36036 ft 465 kts 32°
2026-04-18 06:52 30.39147 -13.66536 36039 ft 464 kts 32°
2026-04-18 06:53 30.44498 -13.62338 36030 ft 464 kts 32°
2026-04-18 06:53 30.49845 -13.58131 36029 ft 464 kts 32°
2026-04-18 06:54 30.55469 -13.54522 36044 ft 462 kts 25°
2026-04-18 06:54 30.61169 -13.51069 36044 ft 462 kts 25°
2026-04-18 06:55 30.66823 -13.47624 36035 ft 462 kts 25°
2026-04-18 06:55 30.72514 -13.44160 36034 ft 462 kts 25°
2026-04-18 06:56 30.78193 -13.40687 36040 ft 461 kts 25°
2026-04-18 06:56 30.83881 -13.37220 36046 ft 461 kts 25°
2026-04-18 06:57 30.89563 -13.33750 36043 ft 461 kts 25°
2026-04-18 06:57 30.98075 -13.28534 36045 ft 461 kts 25°
2026-04-18 06:58 31.03747 -13.25053 36036 ft 461 kts 25°
2026-04-18 06:58 31.09415 -13.21564 36044 ft 461 kts 25°
2026-04-18 06:59 31.15079 -13.18077 36066 ft 460 kts 25°
2026-04-18 06:59 31.20748 -13.14590 36061 ft 460 kts 25°
2026-04-18 07:00 31.26413 -13.11095 36042 ft 460 kts 25°
2026-04-18 07:00 31.32038 -13.07616 36058 ft 460 kts 25°
2026-04-18 07:01 31.37695 -13.04115 36048 ft 460 kts 25°
2026-04-18 07:01 31.43354 -13.00609 36061 ft 460 kts 25°
2026-04-18 07:02 31.49012 -12.97102 36060 ft 460 kts 25°
2026-04-18 07:02 31.54664 -12.93586 36060 ft 460 kts 25°
2026-04-18 07:03 31.60317 -12.90068 36059 ft 460 kts 25°
2026-04-18 07:03 31.65966 -12.86555 36064 ft 460 kts 25°
2026-04-18 07:04 31.71616 -12.83028 36076 ft 460 kts 26°
2026-04-18 07:04 31.77264 -12.79493 36075 ft 460 kts 25°
2026-04-18 07:05 31.82911 -12.75957 36064 ft 460 kts 25°
2026-04-18 07:05 31.88519 -12.72440 36068 ft 460 kts 25°
2026-04-18 07:06 31.94164 -12.68911 36068 ft 460 kts 25°
2026-04-18 07:06 31.99811 -12.65372 36087 ft 460 kts 25°
2026-04-18 07:07 32.05450 -12.61816 36084 ft 460 kts 26°
2026-04-18 07:07 32.11086 -12.58258 36084 ft 459 kts 25°
2026-04-18 07:08 32.16718 -12.54703 36079 ft 459 kts 25°
2026-04-18 07:08 32.22356 -12.51148 36082 ft 459 kts 25°
2026-04-18 07:09 32.27986 -12.47583 36092 ft 459 kts 25°
2026-04-18 07:09 32.33619 -12.44015 36091 ft 459 kts 25°
2026-04-18 07:10 32.39246 -12.40448 36079 ft 459 kts 25°
2026-04-18 07:10 32.44873 -12.36872 36089 ft 459 kts 25°
2026-04-18 07:11 32.50497 -12.33290 36089 ft 459 kts 25°
2026-04-18 07:11 32.56121 -12.29707 36099 ft 459 kts 25°
2026-04-18 07:12 32.61745 -12.26123 36096 ft 459 kts 25°
2026-04-18 07:12 32.67360 -12.22529 36098 ft 459 kts 26°
2026-04-18 07:13 32.72942 -12.18953 36099 ft 459 kts 25°
2026-04-18 07:13 32.78562 -12.15353 36100 ft 459 kts 26°
2026-04-18 07:14 32.84180 -12.11747 36095 ft 459 kts 26°
2026-04-18 07:14 32.89792 -12.08137 36098 ft 459 kts 26°
2026-04-18 07:15 32.95408 -12.04526 36099 ft 459 kts 26°
2026-04-18 07:15 33.01023 -12.00910 36096 ft 459 kts 26°
2026-04-18 07:16 33.06638 -11.97292 36095 ft 459 kts 26°
2026-04-18 07:16 33.12244 -11.93656 36105 ft 459 kts 26°
2026-04-18 07:17 33.17847 -11.90021 36105 ft 459 kts 26°
2026-04-18 07:17 33.23457 -11.86391 36103 ft 459 kts 26°
2026-04-18 07:18 33.29025 -11.82772 36104 ft 459 kts 26°
2026-04-18 07:18 33.34634 -11.79136 36106 ft 458 kts 26°
2026-04-18 07:19 33.40237 -11.75485 36115 ft 459 kts 26°
2026-04-18 07:19 33.45838 -11.71833 36108 ft 459 kts 26°
2026-04-18 07:20 33.51441 -11.68170 36107 ft 459 kts 26°
2026-04-18 07:20 33.57042 -11.64495 36104 ft 459 kts 26°
2026-04-18 07:21 33.62640 -11.60824 36098 ft 459 kts 26°
2026-04-18 07:21 33.68244 -11.57151 36110 ft 459 kts 26°
2026-04-18 07:22 33.73851 -11.53478 36108 ft 459 kts 26°
2026-04-18 07:22 33.79455 -11.49795 36110 ft 459 kts 26°
2026-04-18 07:23 33.85054 -11.46089 36104 ft 459 kts 26°
2026-04-18 07:23 33.90655 -11.42390 36112 ft 460 kts 26°
2026-04-18 07:24 33.96265 -11.38685 36123 ft 460 kts 26°
2026-04-18 07:24 34.01873 -11.34972 36123 ft 460 kts 26°
2026-04-18 07:25 34.07475 -11.31251 36121 ft 460 kts 26°
2026-04-18 07:25 34.13077 -11.27533 36116 ft 459 kts 26°
2026-04-18 07:26 34.18670 -11.23807 36116 ft 459 kts 26°
2026-04-18 07:26 34.24268 -11.20083 36129 ft 459 kts 26°
2026-04-18 07:27 34.29869 -11.16363 36124 ft 459 kts 26°
2026-04-18 07:27 34.35426 -11.12655 36121 ft 459 kts 26°
2026-04-18 07:28 34.41009 -11.08905 36121 ft 459 kts 26°
2026-04-18 07:28 34.46595 -11.05155 36118 ft 459 kts 26°
2026-04-18 07:29 34.52177 -11.01403 36124 ft 459 kts 26°
2026-04-18 07:29 34.57762 -10.97659 36120 ft 459 kts 26°
2026-04-18 07:30 34.63345 -10.93907 36119 ft 459 kts 26°
2026-04-18 07:30 34.68918 -10.90147 36116 ft 458 kts 26°
2026-04-18 07:31 34.74490 -10.86378 36112 ft 458 kts 26°
2026-04-18 07:31 34.80063 -10.82600 36121 ft 459 kts 26°
2026-04-18 07:32 34.85636 -10.78819 36116 ft 458 kts 26°
2026-04-18 07:32 34.90266 -10.75682 36110 ft 458 kts 26°
2026-04-18 07:33 34.96739 -10.71284 36111 ft 459 kts 26°
2026-04-18 07:33 35.02311 -10.67488 36111 ft 459 kts 26°
2026-04-18 07:34 35.07884 -10.63689 36118 ft 459 kts 26°
2026-04-18 07:34 35.13457 -10.59892 36110 ft 459 kts 26°
2026-04-18 07:35 35.18083 -10.56730 36101 ft 459 kts 26°
2026-04-18 07:35 35.23646 -10.52913 36102 ft 458 kts 26°
2026-04-18 07:36 35.29202 -10.49101 36104 ft 458 kts 26°
2026-04-18 07:36 35.34763 -10.45284 36112 ft 458 kts 26°
2026-04-18 07:37 35.40327 -10.41459 36108 ft 459 kts 26°
2026-04-18 07:37 35.45890 -10.37618 36109 ft 459 kts 26°
2026-04-18 07:38 35.51455 -10.33777 36110 ft 459 kts 26°
2026-04-18 07:38 35.57012 -10.29931 36107 ft 459 kts 26°
2026-04-18 07:39 35.62568 -10.26075 36102 ft 458 kts 26°
2026-04-18 07:39 35.68122 -10.22225 36099 ft 458 kts 26°
2026-04-18 07:40 35.73637 -10.18404 36085 ft 458 kts 26°
2026-04-18 07:40 35.79179 -10.14554 36089 ft 458 kts 26°
2026-04-18 07:41 35.84717 -10.10682 36098 ft 458 kts 27°
2026-04-18 07:41 35.90254 -10.06800 36096 ft 458 kts 27°
2026-04-18 07:42 35.95798 -10.02927 36098 ft 458 kts 27°
2026-04-18 07:42 36.01346 -9.99064 36097 ft 458 kts 26°
2026-04-18 07:43 36.06892 -9.95211 36092 ft 457 kts 26°
2026-04-18 07:43 36.12443 -9.91363 36098 ft 457 kts 27°
2026-04-18 07:44 36.17990 -9.87501 36101 ft 457 kts 27°
2026-04-18 07:44 36.23533 -9.83632 36099 ft 457 kts 27°
2026-04-18 07:45 36.29073 -9.79759 36091 ft 457 kts 27°
2026-04-18 07:45 36.34600 -9.75877 36093 ft 457 kts 27°
2026-04-18 07:46 36.40088 -9.71997 36106 ft 457 kts 27°
2026-04-18 07:46 36.45613 -9.68099 36098 ft 456 kts 27°
2026-04-18 07:47 36.51134 -9.64206 36092 ft 456 kts 27°
2026-04-18 07:47 36.56651 -9.60319 36089 ft 456 kts 27°
2026-04-18 07:48 36.62172 -9.56420 36094 ft 456 kts 27°
2026-04-18 07:48 36.67690 -9.52511 36093 ft 456 kts 27°
2026-04-18 07:49 36.73212 -9.48608 36098 ft 456 kts 27°
2026-04-18 07:49 36.78729 -9.44701 36101 ft 456 kts 27°
2026-04-18 07:50 36.84242 -9.40769 36101 ft 456 kts 27°
2026-04-18 07:50 36.89754 -9.36829 36102 ft 456 kts 27°
2026-04-18 07:51 36.95271 -9.32891 36109 ft 457 kts 27°
2026-04-18 07:51 37.00792 -9.28959 36098 ft 457 kts 27°
2026-04-18 07:52 37.06269 -9.25037 36085 ft 458 kts 27°
2026-04-18 07:52 37.11810 -9.21049 35202 ft 465 kts 27°
2026-04-18 07:53 37.14640 -9.19015 34367 ft 470 kts 27°
2026-04-18 07:53 37.17471 -9.16977 33718 ft 468 kts 28°
2026-04-18 07:53 37.20283 -9.14950 33132 ft 464 kts 28°
2026-04-18 07:53 37.23072 -9.12937 32573 ft 460 kts 28°
2026-04-18 07:54 37.25830 -9.10946 32040 ft 455 kts 28°
2026-04-18 07:54 37.28561 -9.08975 31509 ft 451 kts 28°
2026-04-18 07:54 37.31269 -9.07016 31001 ft 447 kts 28°
2026-04-18 07:54 37.33947 -9.05078 30500 ft 443 kts 28°
2026-04-18 07:55 37.36604 -9.03153 29979 ft 439 kts 28°
2026-04-18 07:55 37.39234 -9.01248 29420 ft 434 kts 28°
2026-04-18 07:55 37.41838 -8.99361 28883 ft 430 kts 28°
2026-04-18 07:55 37.44421 -8.97489 28331 ft 426 kts 28°
2026-04-18 07:56 37.46977 -8.95634 27787 ft 423 kts 28°
2026-04-18 07:56 37.49510 -8.93792 27250 ft 419 kts 28°
2026-04-18 07:56 37.52025 -8.91960 26720 ft 416 kts 28°
2026-04-18 07:56 37.54517 -8.90147 26208 ft 412 kts 28°
2026-04-18 07:57 37.57070 -8.88556 25692 ft 406 kts 17°
2026-04-18 07:57 37.59791 -8.87744 25203 ft 399 kts
2026-04-18 07:57 37.62521 -8.87758 24958 ft 385 kts 350°
2026-04-18 07:57 37.65090 -8.88468 24721 ft 373 kts 340°
2026-04-18 07:58 37.69942 -8.90414 23415 ft 362 kts 340°
2026-04-18 07:58 37.72293 -8.91377 22597 ft 358 kts 340°
2026-04-18 07:58 37.74569 -8.92582 21658 ft 354 kts 324°
2026-04-18 07:59 37.76488 -8.94509 20710 ft 353 kts 314°
2026-04-18 07:59 37.78247 -8.96676 19783 ft 354 kts 315°
2026-04-18 07:59 37.80308 -8.98372 18980 ft 357 kts 335°
2026-04-18 07:59 37.82661 -8.99465 18435 ft 361 kts 339°
2026-04-18 08:00 37.85043 -9.00447 18017 ft 359 kts 341°
2026-04-18 08:00 37.87455 -9.01281 17931 ft 360 kts 344°
2026-04-18 08:00 37.89895 -9.02031 17830 ft 361 kts 345°
2026-04-18 08:00 37.92339 -9.02747 17448 ft 360 kts 345°
2026-04-18 08:01 37.94779 -9.03458 16978 ft 359 kts 345°
2026-04-18 08:01 37.97202 -9.04177 16498 ft 358 kts 345°
2026-04-18 08:01 37.99624 -9.04910 16018 ft 357 kts 345°
2026-04-18 08:01 38.02033 -9.05655 15543 ft 357 kts 344°
2026-04-18 08:02 38.04444 -9.06410 15065 ft 356 kts 344°
2026-04-18 08:02 38.06849 -9.07166 14588 ft 356 kts 344°
2026-04-18 08:02 38.09258 -9.07923 14112 ft 356 kts 344°
2026-04-18 08:02 38.11632 -9.08669 13612 ft 356 kts 345°
2026-04-18 08:03 38.14033 -9.09422 13131 ft 355 kts 345°
2026-04-18 08:03 38.16421 -9.10173 12652 ft 353 kts 345°
2026-04-18 08:03 38.18805 -9.10924 12087 ft 353 kts 345°
2026-04-18 08:03 38.21184 -9.11670 11607 ft 351 kts 345°
2026-04-18 08:04 38.23549 -9.12408 11138 ft 349 kts 345°
2026-04-18 08:04 38.25901 -9.13143 10673 ft 347 kts 345°
2026-04-18 08:04 38.28233 -9.13878 10208 ft 344 kts 345°
2026-04-18 08:04 38.30552 -9.14611 9733 ft 342 kts 346°
2026-04-18 08:05 38.32815 -9.15326 9268 ft 326 kts 346°
2026-04-18 08:05 38.34961 -9.16007 8885 ft 310 kts 346°
2026-04-18 08:05 38.37005 -9.16653 8509 ft 296 kts 346°
2026-04-18 08:05 38.38957 -9.17271 8183 ft 282 kts 346°
2026-04-18 08:06 38.40847 -9.17868 7868 ft 279 kts 346°
2026-04-18 08:06 38.42718 -9.18460 7550 ft 276 kts 346°
2026-04-18 08:06 38.44566 -9.19044 7230 ft 269 kts 346°
2026-04-18 08:06 38.46349 -9.19608 6907 ft 260 kts 346°
2026-04-18 08:07 38.48075 -9.20151 6572 ft 252 kts 347°
2026-04-18 08:07 38.49737 -9.20676 6203 ft 246 kts 346°
2026-04-18 08:07 38.51387 -9.21199 5804 ft 243 kts 347°
2026-04-18 08:07 38.53019 -9.21718 5404 ft 241 kts 347°
2026-04-18 08:08 38.54635 -9.22233 5013 ft 237 kts 347°
2026-04-18 08:08 38.56226 -9.22736 4611 ft 234 kts 347°
2026-04-18 08:08 38.57796 -9.23233 4217 ft 231 kts 348°
2026-04-18 08:08 38.59357 -9.23407 3914 ft 221 kts 10°
2026-04-18 08:09 38.60783 -9.22851 3674 ft 210 kts 25°
2026-04-18 08:09 38.62105 -9.22145 3401 ft 203 kts 25°
2026-04-18 08:09 38.63395 -9.21458 3129 ft 199 kts 25°
2026-04-18 08:09 38.64651 -9.20789 2868 ft 191 kts 25°
2026-04-18 08:10 38.65845 -9.20154 2632 ft 179 kts 26°
2026-04-18 08:10 38.66962 -9.19559 2404 ft 170 kts 26°
2026-04-18 08:10 38.68039 -9.18984 2163 ft 166 kts 26°
2026-04-18 08:10 38.69098 -9.18419 1958 ft 164 kts 26°
2026-04-18 08:11 38.70140 -9.17863 1739 ft 159 kts 25°
2026-04-18 08:11 38.71148 -9.17326 1526 ft 154 kts 25°
2026-04-18 08:11 38.72118 -9.16808 1325 ft 148 kts 25°
2026-04-18 08:11 38.73058 -9.16306 1136 ft 145 kts 24°
2026-04-18 08:12 38.73984 -9.15812 944 ft 143 kts 23°
2026-04-18 08:12 38.74897 -9.15324 753 ft 142 kts 22°
2026-04-18 08:12 38.75806 -9.14838 569 ft 141 kts 22°
2026-04-18 08:12 38.76711 -9.14355 366 ft 140 kts 21°
2026-04-18 08:13 38.77521 -9.13920 364 ft 106 kts 22°
2026-04-18 08:13 38.78040 -9.13642 369 ft 56 kts 23°
2026-04-18 08:13 38.78291 -9.13467 365 ft 35 kts 47°
2026-04-18 08:13 38.78373 -9.13308 364 ft 15 kts 99°
2026-04-18 08:14 38.78305 -9.13275 365 ft 12 kts 195°
2026-04-18 08:14 38.78231 -9.13310 360 ft 11 kts 202°
2026-04-18 08:14 38.78161 -9.13348 363 ft 10 kts 202°
2026-04-18 08:14 38.78085 -9.13388 359 ft 15 kts 202°
2026-04-18 08:15 38.77969 -9.13401 358 ft 19 kts 169°
2026-04-18 08:15 38.77828 -9.13363 347 ft 23 kts 168°
2026-04-18 08:15 38.77669 -9.13323 338 ft 20 kts 173°
2026-04-18 08:15 38.77530 -9.13305 336 ft 20 kts 168°
2026-04-18 08:16 38.77397 -9.13271 336 ft 19 kts 169°
2026-04-18 08:16 38.77267 -9.13243 336 ft 18 kts 168°
2026-04-18 08:16 38.77147 -9.13210 338 ft 17 kts 168°
2026-04-18 08:16 38.77038 -9.13181 338 ft 15 kts 168°
2026-04-18 08:17 38.76938 -9.13154 334 ft 14 kts 168°
2026-04-18 08:17 38.76845 -9.13129 338 ft 13 kts 168°
2026-04-18 08:17 38.76758 -9.13106 338 ft 13 kts 168°
2026-04-18 08:17 38.76707 -9.13054 337 ft 10 kts 82°
2026-04-18 08:18 38.76714 -9.13010 337 ft 3 kts 78°
2026-04-18 08:18 38.76715 -9.13001 337 ft 0 kts 78°